Marshfield, WI

7:37 PM CDT on June 28, 2017 (GMT -0500)
Marshfield Municipal

Weather History for KMFI - May, 2013

Change the Weather History Date:

Friday, May 10, 2013

  Actual Average Record
Temperature  
Mean Temperature 50 °F -  
Max Temperature 62 °F 69 °F 86 °F (1934)
Min Temperature 39 °F 40 °F 21 °F (1966)
Degree Days  
Heating Degree Days 14    
Moisture  
Dew Point 37 °F    
Average Humidity 65    
Maximum Humidity 93    
Minimum Humidity 26    
Precipitation  
Precipitation 0.00 in - - ()
Sea Level Pressure  
Sea Level Pressure 30.00 in    
Wind  
Wind Speed 10 mph (NNE)    
Max Wind Speed 16 mph    
Max Gust Speed 23 mph    
Visibility 10 miles    
Events      
Averages and records for this station are not official NWS values.
T = Trace of Precipitation, MM = Missing Value Source: NWS Daily Summary

Daily Weather History Graph

Daily Weather History Graph

Search for Another Location

Airport or City:

Trip Planner

Search our weather history database for the weather conditions in past years. The results will help you decide how hot, cold, wet, or windy it might be!

Date:

Astronomy

May. 10, 2013 Rise Set
Actual Time 5:38 AM CDT 8:16 PM CDT
Civil Twilight 5:05 AM CDT 8:50 PM CDT
Nautical Twilight 4:23 AM CDT 9:32 PM CDT
Astronomical Twilight 3:35 AM CDT 10:20 PM CDT
Moon 6:02 AM CDT (5/10) 9:07 PM CDT (5/10)
Length of Visible Light 15h 44m
Length of Day
14h 38m
New Moon, 0% of the Moon is Illuminated
May 10
New Moon
May 17
First Quarter
May 24
Full
May 31
Last Quarter
Jun 8
New

Hourly Weather History & Observations

Time (CDT) Temp. Windchill Dew Point Humidity Pressure Visibility Wind Dir Wind Speed Gust Speed Precip Events Conditions
12:54 AM 41.0 °F 32.8 °F 39.0 °F 93% 30.03 in 10.0 mi NNE 16.1 mph 23.0 mph N/A   Overcast
1:54 AM 39.9 °F 32.1 °F 37.0 °F 89% 30.03 in 10.0 mi NNE 13.8 mph 21.9 mph N/A   Overcast
2:54 AM 39.0 °F 31.0 °F 35.1 °F 86% 30.03 in 10.0 mi NNE 13.8 mph 23.0 mph N/A   Overcast
3:19 AM 39.2 °F 33.0 °F 35.6 °F 87% 30.00 in 10.0 mi NE 9.2 mph 23.0 mph N/A   Overcast
3:54 AM 39.0 °F 31.4 °F 34.0 °F 82% 30.03 in 10.0 mi NE 12.7 mph 19.6 mph N/A   Overcast
4:54 AM 39.0 °F 32.3 °F 34.0 °F 82% 30.02 in 10.0 mi NNE 10.4 mph - N/A   Overcast
5:54 AM 39.0 °F 32.3 °F 34.0 °F 82% 30.03 in 10.0 mi NNE 10.4 mph - N/A   Overcast
8:08 AM 39.2 °F 31.6 °F 33.8 °F 81% 30.02 in 10.0 mi NNE 12.7 mph 20.7 mph N/A   Overcast
8:25 AM 41.0 °F 34.3 °F 33.8 °F 76% 30.02 in 10.0 mi NE 11.5 mph - N/A   Overcast
8:54 AM 43.0 °F 38.2 °F 36.0 °F 76% 30.05 in 10.0 mi NE 8.1 mph - N/A   Mostly Cloudy
9:19 AM 44.6 °F 39.2 °F 35.6 °F 71% 30.02 in 10.0 mi NE 10.4 mph - N/A   Partly Cloudy
9:52 AM 44.6 °F 40.2 °F 37.4 °F 76% 30.02 in 10.0 mi NNE 8.1 mph - N/A   Mostly Cloudy
9:54 AM 45.0 °F 39.7 °F 37.0 °F 74% 30.05 in 10.0 mi NE 10.4 mph - N/A   Mostly Cloudy
10:54 AM 50.0 °F - 39.9 °F 68% 30.05 in 10.0 mi NE 8.1 mph - N/A   Mostly Cloudy
11:09 AM 50.0 °F - 39.2 °F 66% 30.02 in 10.0 mi North 8.1 mph - N/A   Scattered Clouds
11:49 AM 51.8 °F - 39.2 °F 62% 30.02 in 10.0 mi NE 5.8 mph - N/A   Mostly Cloudy
12:18 PM 51.8 °F - 39.2 °F 62% 30.01 in 10.0 mi Calm Calm - N/A   Scattered Clouds
12:27 PM 53.6 °F - 41.0 °F 62% 30.01 in 10.0 mi East 4.6 mph - N/A   Mostly Cloudy
12:35 PM 53.6 °F - 41.0 °F 62% 30.01 in 10.0 mi Variable 3.5 mph - N/A   Scattered Clouds
12:54 PM 55.0 °F - 41.0 °F 59% 30.03 in 10.0 mi NE 6.9 mph - N/A   Scattered Clouds
1:27 PM 55.4 °F - 42.8 °F 63% 30.00 in 10.0 mi Variable 4.6 mph - N/A   Mostly Cloudy
1:45 PM 55.4 °F - 42.8 °F 63% 30.00 in 10.0 mi Calm Calm - N/A   Mostly Cloudy
1:54 PM 57.0 °F - 42.1 °F 57% 30.01 in 10.0 mi NNW 6.9 mph - N/A   Scattered Clouds
2:54 PM 59.0 °F - 37.9 °F 46% 30.01 in 10.0 mi North 6.9 mph - N/A   Clear
3:54 PM 61.0 °F - 36.0 °F 39% 29.99 in 10.0 mi WNW 5.8 mph - N/A   Clear
4:54 PM 62.1 °F - 33.1 °F 34% 29.96 in 10.0 mi NW 9.2 mph - N/A   Clear
5:54 PM 62.1 °F - 27.0 °F 26% 29.94 in 10.0 mi Calm Calm - N/A   Clear
6:54 PM 61.0 °F - 28.0 °F 29% 29.94 in 10.0 mi West 3.5 mph - N/A   Clear
7:54 PM 57.9 °F - 32.0 °F 37% 29.94 in 10.0 mi West 3.5 mph - N/A   Clear
8:54 PM 52.0 °F - 35.1 °F 53% 29.94 in 10.0 mi SSW 4.6 mph - N/A   Clear
9:54 PM 53.1 °F - 32.0 °F 45% 29.93 in 10.0 mi WSW 5.8 mph - N/A   Clear
10:54 PM 46.0 °F 44.8 °F 37.9 °F 73% 29.92 in 10.0 mi SSW 3.5 mph - N/A   Clear
11:54 PM 46.0 °F 42.5 °F 36.0 °F 68% 29.91 in 10.0 mi SSW 6.9 mph - N/A   Clear